Location: Jackson
(42.2460°N, 84.4010°W)
Time: 18:49:03
(UTC-04:00)

Courier 1B Rocket - Pass Details

Date: 09 February 2026
Orbit: 920 x 1201 km, 28.2° (Epoch: 12 March)

Event Time Altitude Azimuth Distance (km) Brightness Sun altitude
Rises 04:16:05 0° 256° (WSW) 4,012 - -38.3°
Reaches altitude 10° 04:20:15 10° 235° (SW) 3,088 - -37.6°
Maximum altitude 04:24:22 15° 202° (SSW) 2,720 - -36.8°
Drops below altitude 10° 04:28:32 10° 169° (S) 3,122 - -36.1°
Exits shadow 04:28:55 - 167° (SSE) 3,190 7.6 -36.0°
Sets 04:32:48 0° 149° (SSE) 4,082 8.4 -35.3°
